Find Starlink 11511

NORAD ID: 62468 Int'l Des: 2024-254 Owner: SPXS Country: US Constellation: starlink operational
LEOCIRCULAR

現在のビュー

3D地球を読み込み中...

About Starlink 11511

Starlink 11511 (NORAD 62468) is a starlink constellation satellite (v2 mini d2c) launched Dec 31, 2024 by SPXS of US. It operates in LEO, CIRCULAR orbit with a mass of 960.00 kg.

Starlink 11511について

説明を読み込み中...

次回通過

Passes for default location (London). Set your location on the main map for personalized predictions.

高度履歴

Loading altitude history...

軌道要素

1 62468U 24254G 26160.90182272 .00189091 00000-0 14399-2 0 9995
2 62468 43.0003 27.1713 0001879 256.2890 103.7769 15.70904955 83904
Epoch: Jun 9, 2026 • Age: 14 hours

現在のステータス

高度 359.9 km
速度 7.70 km/s
衛星直下点 42.74°N, 47.73°E
打ち上げ日 Dec 31, 2024
運用期間 1.4 years
タイプ internet

技術仕様

分類 Payload
質量 960.00 kg
乾燥質量 910.00 kg
総質量 960.00 kg
長さ 0.30 m
直径 4.10 m
スパン 29.00 m
形状 Box + pan
製造者 SPXS
バスタイプ Starlink V2MD
フェーズステータス In Orbit
所有者/国 SPXS/US

Most Searched